Skip Page Navigation
NASA JPL Caltech
NASA Logo - Jet Propulsion Laboratory + View the NASA Portal
+ Center for Near-Earth Object Studies
JPL Home Earth Solar System Stars & Galaxies Technology
JPL Solar System Dynamics
BODIES ORBITS EPHEMERIDES TOOLS PHYSICAL DATA DISCOVERY FAQ SITE MAP
JPL Small-Body Database Browser
Search: [ help ]  
134783 (2000 DZ90)
Classification: Main-belt Asteroid          SPK-ID: 2134783
Ephemeris | Orbit Diagram | Orbital Elements | Mission Design | Physical Parameters | Discovery Circumstances | Close-Approach Data ]

[ show orbit diagram ]
Orbital Elements at Epoch 2459200.5 (2020-Dec-17.0) TDB
Reference: JPL 18 (heliocentric ecliptic J2000)
 Element Value Uncertainty (1-sigma)   Units 
e .04998788676347403 7.543e-08  
a 2.607094983830667 1.2862e-08 au
q 2.476771814997319 1.9382e-07 au
i 2.026402169321364 4.8558e-06 deg
node 341.2250723553665 0.00012162 deg
peri 31.00094538108969 0.00012933 deg
M 112.3324103155465 4.1939e-05 deg
tp 2458720.726468532164
(2019-Aug-25.22646853)
0.000179 TDB
period 1537.565791059297
4.21
1.1378e-05
3.115e-08
d
yr
n .2341363225517525 1.7326e-09 deg/d
Q 2.737418152664016 1.3505e-08 au
  Orbit Determination Parameters
   # obs. used (total)      611  
   data-arc span      9170 days (25.11 yr)  
   first obs. used      1996-01-25  
   last obs. used      2021-03-04  
   planetary ephem.      DE441  
   SB-pert. ephem.      SB441-N16  
   condition code      0  
   norm. resid. RMS      .55695  
   source      ORB  
   producer      Otto Matic  
   solution date      2021-Apr-13 18:09:54  

Additional Information
 Earth MOID = 1.47483 au 
 Jupiter MOID = 2.48097 au 
 T_jup = 3.409 
[ show covariance matrix ]

Ephemeris | Orbit Diagram | Orbital Elements | Mission Design | Physical Parameters | Discovery Circumstances | Close-Approach Data ]

Physical Parameter Table
Parameter Symbol Value Units Sigma Reference Notes
absolute magnitude H 16.1   n/a MPO502850  

134783 (2000 DZ90)          Discovered 2000-Feb-27 by Spacewatch at Kitt Peak
Reference: 20060907/Numbers.arcLast Updated: 2006-09-10

[ show close-approach data ]
Alternate Designations
 2000 DZ90 = 2002 SO2 
Ephemeris | Orbit Diagram | Orbital Elements | Mission Design | Physical Parameters | Discovery Circumstances | Close-Approach Data ]
ABOUT SSD CREDITS/AWARDS PRIVACY/COPYRIGHT GLOSSARY LINKS
FirstGov 2021-Apr-18 09:39 UT
(server date/time)  
NASA Home Page
Site Manager:   Ryan S. Park
Webmaster  Alan B. Chamberlin